Regional Weather Roundup
Issued by NWS Wakefield, VA

Home | Current Version | Previous Version | Text Only | Print | Product List | Glossary Off
Versions: 1 2 3 4 5 6 7 8 9 10 11 12 13 14 15 16 17 18 19 20 21 22 23 24 25 26 27 28 29 30 31 32 33 34 35 36 37 38 39 40 41 42 43 44 45 46 47 48 49 50

000
ASUS41 KAKQ 250210
RWRAKQ

REGIONAL WEATHER ROUNDUP
NATIONAL WEATHER SERVICE WAKEFIELD VA
1000 PM EDT THU JUL 24 2014

Note: "fair" indicates few or no clouds below 12,000 feet with no
significant weather and/or obstructions to visibility. * = Denotes
station may not report precipitation (e.g., rain,snow,etc.),
thunder or fog.

VAZ042-051-052>054-056-250300-
NORTHERN VIRGINIA

CITY           SKY/WX    TMP DP  RH WIND       PRES   REMARKS
WASH NATIONAL  MOCLDY    75  56  51 N7        29.94R
DULLES         MOCLDY    66  59  78 CALM      29.95R
FORT BELVOIR   MOCLDY    68  62  83 CALM      29.95R
QUANTICO       MOCLDY    70  67  90 NW7       29.95R
FREDERICKSBRG* CLOUDY    69  69 100 CALM      29.94R
STAFFORD*      MOCLDY    67  67 100 CALM      29.99R FOG
WARRENTON      FOG       65  65 100 CALM      29.94R VSB<1/4
CULPEPER*      FOG      N/A N/A N/A CALM      29.95R VSB 1/2
MANASSAS*      CLEAR     66  66 100 CALM      29.95
LEESBURG*      MOCLDY    68  64  88 CALM      29.96R
WINCHESTER     PTCLDY    63  57  82 CALM      29.97R
$$

VAZ048-049-060>072-079>083-250300-
CENTRAL AND SOUTH CENTRAL VIRGINIA...AND NORTH CENTRAL NORTH CAROLINA

CITY           SKY/WX    TMP DP  RH WIND       PRES   REMARKS
RICHMOND       CLOUDY    71  68  90 NW5       29.95R
CHESTERFIELD*  CLOUDY    70  59  68 NW3       29.97R
HANOVER        CLOUDY    69  67  93 CALM      29.98R
TAPPAHANNOCK*  CLOUDY    68  65  89 CALM      29.96R FOG
CHARLOTTSVILLE PTCLDY    67  66  97 S3        29.97R FOG
ORANGE*        MOCLDY    64  64 100 CALM      29.97R FOG
LOUISA*        FOG       64  63  94 CALM      29.95R VSB 1/2
FARMVILLE*     CLOUDY    66  66 100 CALM      29.95S FOG
SOUTH HILL*    LGT RAIN  72  72 100 CALM      30.00F
ROANOKE RAPIDS CLOUDY    63  63 100 CALM      29.93S
RALEIGH        TSTM      70  68  93 E8        29.93F
$$

VAZ088>098-250300-
SOUTHEAST VIRGINIA

CITY           SKY/WX    TMP DP  RH WIND       PRES   REMARKS
NORFOLK        RAIN      73  70  90 SE8       29.92R FOG
VIRGINIA BEACH TSTM      73  71  93 E6        29.92R FOG
NORFOLK NAVAL  LGT RAIN  73  71  93 SE9       29.93R
WEST POINT*    CLOUDY    70  67  90 CALM      29.95R
NEWPORT NEWS   RAIN      75  71  87 N5        29.93R FOG
LANGLEY AFB    LGT RAIN  73  73 100 SE2       29.91R FOG
FORT EUSTIS    LGT RAIN  72  72 100 N3        29.91R
WILLIAMSBURG*  CLOUDY    72  72 100 CALM      29.94R
FRANKLIN*      CLOUDY    72 N/A N/A CALM      29.93R
WAKEFIELD      LGT RAIN  71  69  93 CALM      29.93S FOG
$$

VAZ020-022-025-037-045-250300-
WESTERN AND SOUTHWEST VIRGINIA

CITY           SKY/WX    TMP DP  RH WIND       PRES   REMARKS
STAUNTON*      PTCLDY    66  64  93 CALM      30.00R FOG
HOT SPRINGS VA CLOUDY    58  57  94 NW8       30.10R FOG
LYNCHBURG      MOCLDY    67  65  93 CALM      29.99R
DANVILLE       CLOUDY    70  66  87 NE5       29.97S
MARTINSVILLE   CLOUDY    72  65  80 E3        30.01R
ROANOKE        CLOUDY    70  66  87 CALM      30.01R
BLACKSBURG       N/A     66  66 100 CALM        N/A
DUBLIN*        PTCLDY    66  64  94 NW7       30.04S
MARION*        CLEAR     65  63  93 SW5       30.08R
HILLSVILLE*    CLOUDY    67  63  85 N8        30.05R
RICHLANDS*     CLOUDY    64  63  94 CALM      30.08R FOG
WISE*          CLOUDY    61  61 100 N6        30.09R FOG
ABINGDON*      CLOUDY    67  64  89 CALM      30.06R
$$

MDZ021>025-VAZ099-100-250300-
SOUTHERN MARYLAND AND THE DELMARVA PENINSULA

CITY           SKY/WX    TMP DP  RH WIND       PRES   REMARKS
PATUXENT RIVER CLOUDY    68  66  93 SW5       29.93R
BAY BRIDGE APT   N/A     73  55  53 N9        29.93R
LEONARDTOWN    CLOUDY    66  64  94 CALM      29.95R
DOVER          CLOUDY    72  62  69 NW7       29.89R
GEORGETOWN     CLOUDY    72  68  87 S7        29.91R
EASTON         NOT AVBL
CAMBRIDGE      CLOUDY    72  68  88 CALM      29.92R
SALISBURY      NOT AVBL
OCEAN CITY     CLOUDY    71  69  93 W5        29.91R
WALLOPS ISLAND CLOUDY    73  71  93 CALM      29.92R
ACCOMACK*      RAIN      72  70  94 CALM      29.91R
$$

NCZ012>017-030>032-250300-
EASTERN NORTH CAROLINA

CITY           SKY/WX    TMP DP  RH WIND       PRES   REMARKS
ELIZABETH CITY RAIN      74  71  91 W9        29.94R FOG
AHOSKIE*       CLOUDY    69  67  93 CALM      29.91F
EDENTON*       HVY RAIN  70  69  96 N16G23    29.93R
CURRITUCK*     HVY RAIN  75  69  81 CALM      29.96R
KILL DEVIL HLS LGT RAIN  74  71  92 CALM      29.91R
MANTEO         NOT AVBL
CAPE HATTERAS  CLOUDY    75  73  93 W13G20    29.90R
GOLDSBORO      HVY RAIN  70  70 100 N8        29.93R FOG
WASHINGTON     CLOUDY    68  66  94 N15G22    29.94R
GREENVILLE     CLOUDY    68  66  94 NE8       29.95F
NEW BERN       PTCLDY    74  71  91 CALM      29.91R
WILMINGTON     TSTM      75  72  90 SE7       29.89R FOG
$$

VAZ048-250300-
ELSEWHERE

CITY           SKY/WX    TMP DP  RH WIND       PRES   REMARKS
HARRISBURG PA  MOCLDY    69  54  58 N3        29.94R
BALTIMORE      MOCLDY    71  57  61 NW3       29.93R
ANNAPOLIS      MOCLDY    74  62  66 N5        29.93R
ANDREWS AFB    MOCLDY    69  59  70 N3        29.94R
WILMINGTON DE  CLOUDY    70  57  63 NW8       29.92R
PHILADELPHIA   CLOUDY    75  53  46 N12       29.91R
WILDWOOD NJ*   CLOUDY    70  63  78 CALM      29.90S
ATLANTIC CITY  CLOUDY    72  68  87 S5        29.90R
HENDERSON NC   LGT RAIN  67  65  93 CALM      29.96S
GREENSBORO     MOCLDY    70  66  88 NE13      29.97R
ROCKY MOUNT    LGT RAIN  68  66  93 NE7       29.95R
FAYETTEVILLE   PTCLDY    78  74  87 N8        29.90R
CHARLOTTE      MOCLDY    72  69  90 CALM      29.95R
$$

VAZ100-250300-
MARINE

STATION/POSITION TIME  TEMP    WIND        PRES    WAVE   SWELL
                       AIR SEA DIR/SP/G            HT/PER HT/PER
                 (UTC) (F)     (DEG/KT/KT) (MB)    (FT/S) (FT/S)
44066 TX TWR #4  0200   73 74  310/  6/  6 1011.3R   3/ 8   2/ 8
CAPE MAY NJ      0200   74 78  290/  3/  6 1011.8S
LEWES DE         0200   73 74  200/  2/  3 1011.8F
15NM E FENWICK I 0200   76 76              1012.3R   2/ 8
OCEAN-CITY-INLET 0200   72 70  280/  3/  3 1012.0R
WACHAPREAGUE VA  0200   74 81  140/  5/ 10 1012.4R
THOMAS POINT MD  0200   75 80  350/  8/  9 1013.9R
GOOSES REEF MD   0200   74     300/  8/ 10 1013.5S
COVE POINT MD    0200   71     300/  7/  8 1013.0R
SOLOMONS ISLAND  0200      81                N/A
BISHOPS HEAD MD  0200   74 80   CALM  /  2 1012.5S
PINEY POINT MD   0200          340/  4/  5   N/A
POTOMAC MD       0200   74     360/  2/  2 1012.5R
CAMBRIDGE MD     0200   76 80  280/  3/  4 1012.6R
LEWISETTA VA     0200   71 80  300/  3/  4 1013.0F
RAPPAHANNOCK LGT 0200           10/ 11/ 13 1013.3R
STINGRAY PT      0200   75      50/ 10/ 12 1013.7S
YORK RVR RNG VA  0200   75      80/  7/  9 1012.4R
YORKTOWN VA      0200   75 81   70/  8/ 11 1012.8R
JAMESTOWN VA     0200   71      10/  4/  6   N/A
DOMINION TERM VA 0200   75     110/ 12/ 15 1012.4S
KIPTOPEKE VA     0200      82  110/  7/ 12   N/A
CHES BAY BRIDGE  0200   74 78   80/ 11/ 14 1012.0R
CAPE HENRY VA    0200   73      80/ 12/ 13 1011.7F
WILLOUBY STN VA  0200          110/  9/ 12 1012.0R
S CRANEY ISL VA  0200          100/  9/ 11 1013.0R
CAPE HENRY BUOY  0200      78                N/A     3/ 5
1ST LANDING BUOY 0200   74     100/ 12/ 14 1012.3F
CAPE CHARLES BUO 0200      77                N/A     2/ 6
OFFSHORE WE BUOY 0200      78                N/A     2/ 8
64NM E OF VA BCH 0200   76 78   50/  4/  6 1012.2R   3/ 7   3/ 7
DUCK PIER NC     0200   76 76  130/  3/  3 1012.2R
44056 DUCK FRF   0200                        N/A     1/ 8
OREGON INLET NC  0200   76 82  360/  2/  3 1012.9R
HATTERAS NC      0200   76 81  230/ 10/ 15 1012.7R
DIAMOND SHLS NC  0200          VRB 19/ 23  1011.7R   4/ 5   2/ 9
CAPE LOOKOUT NC  0100   76     170/ 10/ 11 1011.8F
$$


USA.gov is the U.S. government's official web portal to all federal, state and local government web resources and services.